{"data":{"norad_id":59252,"epoch":"2026-05-25T01:22:22.535328Z","epoch_age_seconds":63995,"freshness":"FRESH","line1":"1 59252U 24049X   26145.05720527  .00001271  00000+0  55713-4 0  9993","line2":"2 59252  43.0042  57.6944 0001480 273.8850  86.1832 15.27584346124256","mean_motion":15.27584346,"eccentricity":0.000148,"inclination_deg":43.0042,"raan_deg":57.6944,"arg_perigee_deg":273.885,"mean_anomaly_deg":86.1832,"bstar":5.5713e-5,"rev_number":12425,"period_min":94.266480523361,"perigee_km":482.02062896682,"apogee_km":484.05153619926,"semimajor_km":6861.173082583,"source":"CELESTRAK","updated_at":"2026-05-25T13:38:18.873466Z"}}